Regional Weather Roundup
Issued by NWS

Home | Current Version | Previous Version | Graphics & Text | Print | Product List | Glossary On
Versions: 1 2 3 4 5 6 7 8 9 10 11 12 13 14 15 16 17 18 19 20 21 22 23 24 25 26 27 28 29 30 31 32 33 34 35 36 37 38 39 40 41 42 43 44 45 46 47 48 49 50
000
ASUS43 KIND 271959
RWRIN

WEATHER ROUNDUP FOR INDIANA
NATIONAL WEATHER SERVICE INDIANAPOLIS IN
400 PM EDT MON APR 27 2015

NOTE: "FAIR" INDICATES FEW OR NO CLOUDS BELOW 12,000 FEET WITH NO
SIGNIFICANT WEATHER AND/OR OBSTRUCTIONS TO VISIBILITY.

* - STATION DOES NOT REPORT WEATHER SUCH AS PRECIPITATION OR FOG.

+ - STATION NOT QUALITY CONTROLLED BY THE NATIONAL WEATHER SERVICE.
    USE DATA WITH CAUTION...ESPECIALLY DEWPOINT AND RELATIVE
    HUMIDITY OBSERVATIONS.

INZ001>003-010>013-019-020-272100-
NORTHWEST INDIANA

CITY           SKY/WX    TMP DP  RH WIND       PRES   REMARKS
GARY /AIRPORT/ MOSUNNY   50  32  50 N12G23    30.14R

$$

LMZ046-743>745-272100-
SOUTHERN LAKE MICHIGAN

STATION/POSITION TIME  TEMP    WIND        PRES    WAVE
                       AIR SEA DIR/SP/G            HT
                 (UTC) (F)     (DEG/KT/KT) (MB)    (FT)
BURNS HARBOR     1900   43      20/ 12/ 15 1020.3F
MICHIGAN CITY    1900   43     340/ 19/ 21   N/A
5NW MICH CITY    1900   41 45  360/ 14/ 17   N/A     4

$$

INZ004-005-014>016-021>024-272100-
NORTH CENTRAL INDIANA

CITY           SKY/WX    TMP DP  RH WIND       PRES   REMARKS
ELKHART        CLOUDY    54  32  43 N10       30.06S
GOSHEN         CLOUDY    52  36  54 N12       30.04S
SOUTH BEND     MOSUNNY   53  35  50 NW16G23   30.08S

$$

INZ006>009-017-018-025>027-272100-
NORTHEAST INDIANA

CITY           SKY/WX    TMP DP  RH WIND       PRES   REMARKS
ANGOLA *+      CLOUDY    48  36  61 VRB6      30.04R
FORT WAYNE     CLOUDY    52  36  54 N10       30.04R

$$

INZ028-029-035-036-043>045-051>053-272100-
WEST CENTRAL INDIANA

CITY           SKY/WX    TMP DP  RH WIND       PRES   REMARKS
CRAWFORDSVL +  PTSUNNY   53  30  41 N16G25    30.06S
GREENCASTLE +  PTSUNNY   54  32  43 N15G21    30.05S
LAFAYETTE      PTSUNNY   55  36  48 N17G25    30.07S
TERRE HAUTE    PTSUNNY   59  39  47 N14G23    30.04F

$$

INZ030>032-037>040-046>048-054>057-064-065-272100-
CENTRAL INDIANA

CITY           SKY/WX    TMP DP  RH WIND       PRES   REMARKS
ANDERSON       CLOUDY    54  32  43 N12G17    30.03S
GREENWOOD *+   PTSUNNY   57  34  41 NW15G21   30.03S
INDIANAPOLIS   PTSUNNY   55  36  48 N16G25    30.03S
-EAGLE CREEK   CLOUDY    54  36  50 N15       30.03S
KOKOMO *+      CLOUDY    54  37  54 N15       30.04S
MT COMFORT *+  PTSUNNY   54  28  37 NW14      30.03S
SHELBYVILLE    CLOUDY    58  38  47 N15       30.01S

$$

INZ033-034-041-042-049-050-058-059-272100-
EAST CENTRAL INDIANA

CITY           SKY/WX    TMP DP  RH WIND       PRES   REMARKS
MUNCIE         CLOUDY    54  38  54 N15       30.02S

$$

INZ060-061-067>069-081>083-085>088-272100-
SOUTHWEST INDIANA

CITY           SKY/WX    TMP DP  RH WIND       PRES   REMARKS
EVANSVILLE     MOSUNNY   64  38  38 N12       30.01F
HUNTINGBURG *+ SUNNY     63  39  42 N10G20    30.00F

$$

INZ062-063-066-070>080-084-089>092-272100-
SOUTH CENTRAL AND SOUTHEAST INDIANA

CITY           SKY/WX    TMP DP  RH WIND       PRES   REMARKS
BLOOMINGTON    PTSUNNY   60  38  43 N14G20    30.01F
MADISON *+     MOSUNNY   61  32  33 N13       29.99F
SEYMOUR +      PTSUNNY   64  39  39 NE17      29.98F

$$




USA.gov is the U.S. government's official web portal to all federal, state and local government web resources and services.